Regional Weather Roundup
Issued by NWS

Home | Current Version | Previous Version | Graphics & Text | Print | Product List | Glossary On
Versions: 1 2 3 4 5 6 7 8 9 10 11 12 13 14 15 16 17 18 19 20 21 22 23 24 25 26 27 28 29 30 31 32 33 34 35 36 37 38 39 40 41 42 43 44 45 46 47 48 49 50
000
ASUS43 KBIS 201602
RWRND

NORTH DAKOTA REGIONAL WEATHER ROUNDUP
NATIONAL WEATHER SERVICE BISMARCK ND
1100 AM CDT WED SEP 20 2017

NOTE: "FAIR" INDICATES FEW OR NO CLOUDS BELOW 12,000 FEET WITH NO
SIGNIFICANT WEATHER AND/OR OBSTRUCTIONS TO VISIBILITY.


NDZ001>003-009>011-017-201700-
NORTHWEST NORTH DAKOTA

CITY           SKY/WX    TMP DP  RH WIND       PRES   REMARKS
WILLISTON      SUNNY     54  40  59 SW15      29.61S
MINOT          SUNNY     58  43  57 SW16      29.61S
MINOT AFB      SUNNY     58  43  59 SW15      29.59S
$$

NDZ018>021-031>035-040>046-201700-
SOUTHWEST NORTH DAKOTA

CITY           SKY/WX    TMP DP  RH WIND       PRES   REMARKS
BISMARCK       SUNNY     59  44  57 SW13      29.72F
DICKINSON      SUNNY     57  40  52 SW21      29.70R
GARRISON         N/A     56  43  61 SW20G29   29.65F
HETTINGER ARPT SUNNY     56  42  59 SW14      29.77R
$$

NDZ004>008-012>016-024-026-027-054-201700-
NORTHEAST NORTH DAKOTA

CITY           SKY/WX    TMP DP  RH WIND       PRES   REMARKS
GRAND FORKS    MOSUNNY   63  49  60 W13       29.68R
GRND FRKS AFB  SUNNY     63  46  54 W12       29.68R
DEVILS LAKE    SUNNY     58  45  62 SW13      29.67R
$$

NDZ022-023-025-028>030-036>039-047>053-201700-
SOUTHEAST NORTH DAKOTA

CITY           SKY/WX    TMP DP  RH WIND       PRES   REMARKS
FARGO          SUNNY     62  49  62 W8        29.74R
JAMESTOWN      SUNNY     59  44  57 SW10      29.72S
$$





USA.gov is the U.S. government's official web portal to all federal, state and local government web resources and services.